User: anonymous   Login
Location: Chatham
(39.6760°N, 89.7040°W)
Time: 00:59:42
(UTC-05:00)
Language:

NOSS 3-1 (C) - Orbit

View from above orbital plane
View from above orbital plane
View from above satellite
View from above satellite

Ground track
Ground track

The orbit data is extracted from the following two-line orbital elements,

1 26907U 01040C   15143.86777549 0.00000000  00000-0  00000-0 0    09
2 26907  63.4213 157.8722 0301000 358.0625   1.9375 13.41232025    08
Epoch (UTC): 23 May 2015 20:49:35
Eccentricity: 0.0301000
inclination: 63.4213°
perigee height: 879 km
apogee height: 1330 km
right ascension of ascending node: 157.8722°
argument of perigee: 358.0625°
revolutions per day: 13.41232025
mean anomaly at epoch: 1.9375°
orbit number at epoch: 0

The dashed part of the orbit path shows where the satellite is in the earth's shadow,  

DLR